Content
SEND FEEDBACK

Daily
Averages
Monthly
Summary
United States of America

PERRINE, FLORIDA


Home > North America > United States > Florida
Elevation: 1 foot     Latitude: 25 36N     Longitude: 080 21W

WEATHER
 
SELECT A DAY
Number of Records: 193,281;   Date Range: 1/1/95 - 8/28/14
 
SHARE

PRINT THIS DATA

[ ← Previous Day ]
WEATHER ALMANAC - JANUARY 3, 2013
[ Next Day → ]
[ °C ]   °F
Weather ElementAverageHighLow
Temperature71.2 °F82.9 °F (1:53 pm)64.4 °F (4:57 am)
Dewpoint65.4 °F68 °F (8:53 am)62.1 °F (3:53 pm)
Humidity84.1 %100 % (2:53 am)52 % (3:53 pm)
Barometer30.09 in30.15 in (9:53 pm)30.04 in (2:53 pm)
Wind Speed3.2 mph10.4 mph (10:53 am)
Weather ElementAverage
Visibility7.3 mi
Wind DirectionENE (75.2 °)

Weather ElementTotal
Precipitation---
Cooling Degree Days8.7 (Base 65)
Growing Degree Days23.7 (Base 50)
Averaged from 31 records on January 3, 2013
WEATHER CONDITIONS BREAKOUT
WIND DIRECTION BREAKOUT
WEATHER BY HOUR - JANUARY 3, 2013
[ °C ]   °F
Local TimeTemperatureDewpointHumidityBarometerVisibilityWind DirectionWind SpeedGust SpeedPrecipitationEventsConditions
1:53 AM66.0 °F64.9 °F96 %30.06 in10.0 miCalmMostly Cloudy
2:53 AM66.2 °F66.2 °F100 %30.05 in9.0 miCalmMostly Cloudy
3:53 AM68.0 °F66.9 °F96 %30.06 in10.0 miCalmScattered Clouds
4:41 AM66.2 °F66.2 °F100 %30.06 in1.5 miCalmScattered Clouds
4:43 AM66.2 °F66.2 °F100 %30.06 in0.8 miCalmScattered Clouds
4:53 AM64.9 °F64.0 °F97 %30.06 in0.8 miNNW (340°)3.5 mphMostly Cloudy
4:57 AM64.4 °F64.4 °F100 %30.06 in2.0 miNW (320°)4.6 mphMostly Cloudy
5:06 AM64.4 °F62.6 °F94 %30.06 in8.0 miCalmOvercast
5:53 AM68.0 °F66.9 °F96 %30.07 in10.0 miCalmMostly Cloudy
6:53 AM66.0 °F64.9 °F96 %30.09 in8.0 miCalmScattered Clouds
7:23 AM66.2 °F66.2 °F100 %30.10 in0.8 miVariable3.5 mphClear
7:40 AM64.4 °F64.4 °F100 %30.10 in0.5 miVariable3.5 mphFogFog
7:44 AM64.4 °F64.4 °F100 %30.11 in1.2 miCalmPartly Cloudy
7:53 AM66.0 °F64.9 °F96 %30.11 in1.5 miCalmClear
7:57 AM66.2 °F66.2 °F100 %30.11 in3.0 miCalmClear
8:53 AM73.0 °F68.0 °F84 %30.12 in10.0 miCalmScattered Clouds
9:53 AM79.0 °F68.0 °F69 %30.12 in10.0 miSouth (180°)5.8 mphPartly Cloudy
10:53 AM81.0 °F64.9 °F58 %30.12 in10.0 miSSE (160°)10.4 mphClear
11:53 AM82.0 °F64.0 °F54 %30.09 in10.0 miVariable6.9 mphPartly Cloudy
12:53 PM81.0 °F64.0 °F56 %30.06 in10.0 miSSE (150°)6.9 mphMostly Cloudy
1:53 PM82.9 °F64.0 °F53 %30.05 in10.0 miSSE (150°)8.1 mphScattered Clouds
2:53 PM82.0 °F64.0 °F54 %30.04 in10.0 miSE (140°)8.1 mphPartly Cloudy
3:53 PM81.0 °F62.1 °F52 %30.06 in10.0 miSSE (160°)10.4 mphClear
4:53 PM78.1 °F64.9 °F64 %30.07 in10.0 miSE (140°)6.9 mphClear
5:53 PM75.9 °F66.0 °F71 %30.09 in10.0 miSSE (150°)6.9 mphClear
6:53 PM73.9 °F66.9 °F79 %30.11 in10.0 miSE (140°)4.6 mphClear
7:53 PM73.0 °F66.9 °F81 %30.13 in10.0 miSSE (150°)3.5 mphClear
8:53 PM72.0 °F66.9 °F84 %30.14 in10.0 miCalmClear
9:53 PM68.0 °F64.9 °F90 %30.15 in10.0 miCalmClear
10:53 PM68.0 °F66.0 °F93 %30.14 in10.0 miCalmClear
11:53 PM69.1 °F66.9 °F93 %30.13 in10.0 miSSE (150°)4.6 mphClear
Hourly data recorded from KTMB, located miles away from Perrine, Florida







STORIES FROM OUR PARTNERS